Regional Weather Roundup
Issued by NWS

Home | Current Version | Previous Version | Graphics & Text | Print | Product List | Glossary On
Versions: 1 2 3 4 5 6 7 8 9 10 11 12 13 14 15 16 17 18 19 20 21 22 23 24 25 26 27 28 29 30 31 32 33 34 35 36 37 38 39 40 41 42 43 44 45 46 47 48 49 50
000
ASUS43 KLOT 260000
RWRIL

ILLINOIS REGIONAL WEATHER ROUNDUP
NATIONAL WEATHER SERVICE CHICAGO/ROMEOVILLE IL
700 PM CDT MON MAY 25 2015

NOTE: "FAIR" INDICATES FEW OR NO CLOUDS BELOW 12,000 FEET WITH NO
SIGNIFICANT WEATHER AND/OR OBSTRUCTIONS TO VISIBILITY.

* THESE STATIONS ARE NOT UNDER NWS QUALITY CONTROL. THEY ALSO MAY NOT
  REPORT WEATHER SUCH AS PRECIPITATION OR FOG.

ILZ001-002-007-009-015-016-024-260100-
NORTHWEST ILLINOIS

CITY           SKY/WX    TMP DP  RH WIND       PRES   REMARKS
MOLINE         MOSUNNY   77  60  55 S13G22    29.86F
6HR MIN TEMP:  76; 6HR MAX TEMP:  80;

STERLING*      SUNNY     79  63  57 SW3       29.88F HX  80
$$

ILZ003-004-008-010-011-017-018-260100-
NORTH CENTRAL ILLINOIS

CITY           SKY/WX    TMP DP  RH WIND       PRES   REMARKS
ROCKFORD       MOSUNNY   80  62  54 SW14G20   29.89F HX  81
6HR MIN TEMP:  74; 6HR MAX TEMP:  80;

$$

ILZ005-006-012>014-019>023-260100-
NORTHEAST ILLINOIS

CITY           SKY/WX    TMP DP  RH WIND       PRES   REMARKS
CHICAGO-OHARE  PTSUNNY   77  60  55 SW13G22   29.91S
6HR MIN TEMP:  70; 6HR MAX TEMP:  78; 6HR PCP: TRACE;

CHICAGO-MIDWAY PTSUNNY   81  61  50 SW12      29.92S HX  82
6HR MIN TEMP:  73; 6HR MAX TEMP:  81;

AURORA         MOSUNNY   78  59  51 SW13      29.92F
6HR MIN TEMP:  74; 6HR MAX TEMP:  80; 6HR PCP: TRACE;

WAUKEGAN       MOSUNNY   77  59  53 SW15      29.90R
6HR MIN TEMP:  71; 6HR MAX TEMP:  78; 6HR PCP: TRACE;

DUPAGE AIRPORT MOSUNNY   77  60  55 SW14      29.91F
6HR MIN TEMP:  69; 6HR MAX TEMP:  79; 6HR PCP: TRACE;

WHEELING       MOSUNNY   78  59  51 S15       29.92S
6HR MIN TEMP:  72; 6HR MAX TEMP:  79;

NORTHERLY ISL    N/A     79  56  45 S8          N/A  HX  80
$$

LMZ740>746-260100-
SOUTHERN LAKE MICHIGAN

STATION/POSITION SKY/WX   TEMP    WIND        PRES    VSBY  WAVE
                          AIR SEA DIR/SP/G                  HT/PER
                          (F)     (DEG/KT/KT) (MB)    (MI)  (FT/S)
SOUTHERN BUOY              48 38  200/ 10/ 12 1013.0S         1/ 4
HARRISON CRIB              76     210/ 22/ 25   N/A
BURNHAM HARBOR             78     240/  9/ 17   N/A
CALUMET HARBOR             79     220/ 11/ 18   N/A
BURNS HARBOR               78     230/ 15/ 20 1014.2S
MICHIGAN CITY              73     220/ 14/ 15   N/A
MICHIGAN CITY 6N           62 52  250/  8/ 10   N/A           1/ 3
ST. JOSEPH                 59 55  230/  6/  8   N/A           2/ 4
$$

ILZ025>027-034>036-040-047-049-050-058-095>099-260100-
WEST-CENTRAL ILLINOIS

CITY           SKY/WX    TMP DP  RH WIND       PRES   REMARKS
QUINCY         SUNNY     80  63  55 S8        29.88F HX  81
$$

ILZ028>032-037-038-041>044-048-051>054-059>061-260100-
CENTRAL ILLINOIS

CITY           SKY/WX    TMP DP  RH WIND       PRES   REMARKS
DECATUR        PTSUNNY   80  64  58 S13       29.95F HX  82
PEORIA         MOSUNNY   82  60  47 S12       29.90F HX  82
6HR MIN TEMP:  76; 6HR MAX TEMP:  83;

SPRINGFIELD    MOSUNNY   82  64  54 S15       29.91F HX  83
6HR MIN TEMP:  78; 6HR MAX TEMP:  85;

TAYLORVILLE    NOT AVBL
$$

ILZ033-039-045-046-055>057-062-063-260100-
EAST-CENTRAL ILLINOIS

CITY           SKY/WX    TMP DP  RH WIND       PRES   REMARKS
CHAMPAIGN      PTSUNNY   80  63  55 S20       29.96F HX  81
MATTOON        PTSUNNY   76  64  66 S12G20    29.97F
$$

ILZ079-100>102-260100-
SOUTHWEST ILLINOIS

CITY           SKY/WX    TMP DP  RH WIND       PRES   REMARKS
BELLEVILLE     MOSUNNY   78  69  73 SE16G24   29.93R HX  80
CAHOKIA*       MOSUNNY   80  68  66 SE10      29.92S HX  83
$$

ILZ064>066-069>071-074>076-080>082-084>086-088>090-092>094-260100-
SOUTH-CENTRAL ILLINOIS

CITY           SKY/WX    TMP DP  RH WIND       PRES   REMARKS
CARBONDALE     CLOUDY    76  67  73 SE14      29.98S
6HR MIN TEMP:  75; 6HR MAX TEMP:  79;

MT. VERNON     PTSUNNY   75  66  73 S9        30.00S
$$

ILZ067-068-072-073-078-083-087-091-260100-
SOUTHEAST ILLINOIS

CITY           SKY/WX    TMP DP  RH WIND       PRES   REMARKS
LAWRENCEVILLE  PTSUNNY   75  66  73 S14       30.02F
$$

ABBREVIATIONS USED IN REMARKS
   TC - TEMPERATURE IN CELSIUS
  WCI - WIND CHILL INDEX
   HX - HEAT INDEX
  VSB - VISIBILITY
$$



USA.gov is the U.S. government's official web portal to all federal, state and local government web resources and services.